EW6606 Weather Reports


Display with metric or nautical units.
time (UTC)temp
F
wind
direction
speed
MPH
gust
MPH
rain 1hr
in
rain 24hr
in
rain mn
in
humidity
%
barometer
mb
20260905004555 89 142 0.0 1.0 0.00 0.00 0.00 55 1014.6
20260905004051 90 180 0.0 0.0 0.00 0.00 0.00 54 1014.9
20260905003547 90 180 0.0 1.0 0.00 0.00 0.00 53 1014.6
20260905003042 91 180 0.0 1.0 0.00 0.00 0.00 52 1014.6
20260905002537 91 326 0.0 1.0 0.00 0.00 0.00 51 1014.5
20260905002032 91 322 0.0 0.0 0.00 0.00 0.00 51 1014.4
20260905001526 92 297 0.0 0.0 0.00 0.00 0.00 51 1014.6
20260905001020 92 297 0.0 0.0 0.00 0.00 0.00 51 1014.5
20260905000516 92 297 0.0 0.0 0.00 0.00 0.00 51 1014.6
20260905000013 93 297 0.0 0.0 0.00 0.00 0.00 50 1014.5
20260904235507 93 336 0.0 0.0 0.00 0.00 0.00 50 1014.8
20260904235006 93 89 0.0 2.0 0.00 0.00 0.00 49 1014.6
20260904234501 93 154 0.0 2.0 0.00 0.00 0.00 49 1014.4
20260904233957 93 150 0.0 2.0 0.00 0.00 0.00 49 1014.5
20260904233452 94 157 0.0 2.0 0.00 0.00 0.00 48 1014.6
20260904232948 94 139 1.0 3.0 0.00 0.00 0.00 48 1014.5
20260904232444 94 293 0.0 1.0 0.00 0.00 0.00 48 1014.4
20260904231941 94 154 0.0 2.0 0.00 0.00 0.00 47 1014.3
20260904231436 94 110 0.0 8.0 0.00 0.00 0.00 47 1014.3
20260904230931 95 160 2.0 3.0 0.00 0.00 0.00 47 1014.2
20260904230430 95 97 2.0 4.0 0.00 0.00 0.00 47 1014.1
20260904225925 95 80 1.0 4.0 0.00 0.00 0.00 47 1014.2
20260904225423 95 95 3.0 3.0 0.00 0.00 0.00 46 1014.1
20260904224923 95 224 0.0 2.0 0.00 0.00 0.00 47 1014.1
20260904224419 95 114 1.0 4.0 0.00 0.00 0.00 47 1014.1
20260904223918 95 156 1.0 3.0 0.00 0.00 0.00 47 1014.2
20260904223417 95 101 2.0 2.0 0.00 0.00 0.00 47 1013.8
20260904222914 95 134 3.0 3.0 0.00 0.00 0.00 46 1013.8
20260904222409 95 330 1.0 2.0 0.00 0.00 0.00 46 1013.8
20260904221908 95 151 3.0 5.0 0.00 0.00 0.00 45 1013.8
20260904221403 95 44 1.0 6.0 0.00 0.00 0.00 46 1013.9
20260904220859 96 104 3.0 5.0 0.00 0.00 0.00 46 1013.9
20260904220357 96 1 2.0 7.0 0.00 0.00 0.00 45 1013.6
20260904215854 96 103 2.0 5.0 0.00 0.00 0.00 45 1013.6
20260904215348 96 17 2.0 3.0 0.00 0.00 0.00 45 1013.6
20260904214844 96 204 5.0 7.0 0.00 0.00 0.00 44 1013.4
20260904214340 96 9 1.0 9.0 0.00 0.00 0.00 44 1013.6
20260904213838 96 144 2.0 8.0 0.00 0.00 0.00 42 1013.7
20260904213333 96 134 7.0 9.0 0.00 0.00 0.00 43 1013.8
20260904212830 97 228 2.0 9.0 0.00 0.00 0.00 42 1013.8
20260904212329 96 307 2.0 3.0 0.00 0.00 0.00 43 1013.7
20260904211825 96 96 2.0 6.0 0.00 0.00 0.00 41 1014.0
20260904211320 96 119 4.0 7.0 0.00 0.00 0.00 44 1013.9
20260904210814 96 199 5.0 7.0 0.00 0.00 0.00 44 1013.7
20260904210308 96 178 1.0 8.0 0.00 0.00 0.00 43 1013.9
20260904205804 97 180 3.0 6.0 0.00 0.00 0.00 43 1013.7
20260904205300 98 175 1.0 6.0 0.00 0.00 0.00 42 1013.9
20260904204757 98 5 3.0 5.0 0.00 0.00 0.00 43 1013.9
20260904204253 97 3 3.0 6.0 0.00 0.00 0.00 43 1013.9
20260904203748 97 34 2.0 7.0 0.00 0.00 0.00 42 1014.1
20260904203244 97 127 0.0 5.0 0.00 0.00 0.00 43 1014.0
20260904202740 97 105 1.0 3.0 0.00 0.00 0.00 44 1014.1
20260904202236 96 339 2.0 6.0 0.00 0.00 0.00 44 1014.1
20260904201732 96 136 4.0 9.0 0.00 0.00 0.00 45 1014.2
20260904201231 97 356 3.0 3.0 0.00 0.00 0.00 45 1014.4
20260904200726 97 14 2.0 4.0 0.00 0.00 0.00 46 1014.5
20260904200221 96 68 2.0 4.0 0.00 0.00 0.00 46 1014.6
20260904195720 96 67 4.0 5.0 0.00 0.00 0.00 44 1014.5
20260904195219 96 202 5.0 11.0 0.00 0.00 0.00 41 1014.8
20260904194714 96 133 3.0 6.0 0.00 0.00 0.00 46 1014.8
20260904194213 96 157 6.0 6.0 0.00 0.00 0.00 45 1015.0
20260904193708 96 210 3.0 8.0 0.00 0.00 0.00 44 1015.0
20260904193204 96 156 2.0 6.0 0.00 0.00 0.00 45 1015.2
20260904192659 97 200 2.0 4.0 0.00 0.00 0.00 45 1015.3
20260904192154 96 22 1.0 3.0 0.00 0.00 0.00 47 1015.3
20260904191651 96 15 2.0 4.0 0.00 0.00 0.00 46 1015.6
20260904191147 97 345 3.0 5.0 0.00 0.00 0.00 46 1015.4
20260904190643 96 331 2.0 4.0 0.00 0.00 0.00 47 1015.6
20260904190133 96 159 1.0 4.0 0.00 0.00 0.00 47 1015.6
20260904185630 96 351 3.0 4.0 0.00 0.00 0.00 49 1015.7
20260904185130 95 128 2.0 7.0 0.00 0.00 0.00 47 1015.9
20260904184628 94 224 2.0 3.0 0.00 0.00 0.00 49 1015.9
20260904184124 95 146 2.0 8.0 0.00 0.00 0.00 48 1016.1
20260904183620 95 354 2.0 5.0 0.00 0.00 0.00 49 1016.0
20260904183114 95 40 0.0 3.0 0.00 0.00 0.00 50 1016.1
20260904182610 95 62 1.0 4.0 0.00 0.00 0.00 50 1016.0
20260904182104 94 343 0.0 2.0 0.00 0.00 0.00 49 1016.3
20260904181601 95 36 1.0 3.0 0.00 0.00 0.00 49 1016.2
20260904181101 95 349 2.0 3.0 0.00 0.00 0.00 50 1016.3
20260904180555 95 349 1.0 3.0 0.00 0.00 0.00 50 1016.5
20260904180050 96 359 2.0 4.0 0.00 0.00 0.00 49 1016.6
20260904175544 96 336 3.0 4.0 0.00 0.00 0.00 50 1016.5
20260904175042 95 106 2.0 3.0 0.00 0.00 0.00 50 1016.8
20260904174537 95 101 3.0 7.0 0.00 0.00 0.00 49 1016.5
20260904174035 94 42 1.0 5.0 0.00 0.00 0.00 51 1016.7
20260904173534 95 283 1.0 3.0 0.00 0.00 0.00 50 1017.0
20260904173030 95 44 1.0 4.0 0.00 0.00 0.00 49 1017.0
20260904172526 95 85 3.0 4.0 0.00 0.00 0.00 50 1017.0
20260904172025 95 180 2.0 7.0 0.00 0.00 0.00 48 1017.0
20260904171520 95 124 2.0 6.0 0.00 0.00 0.00 51 1017.2
20260904171016 94 85 3.0 6.0 0.00 0.00 0.00 50 1017.2
20260904170511 94 165 2.0 4.0 0.00 0.00 0.00 51 1017.2
20260904170007 94 169 3.0 5.0 0.00 0.00 0.00 50 1017.2
20260904165506 94 268 3.0 8.0 0.00 0.00 0.00 51 1017.1
20260904165005 93 141 4.0 10.0 0.00 0.00 0.00 52 1017.3
20260904164500 94 87 1.0 7.0 0.00 0.00 0.00 51 1017.5
20260904163956 94 134 2.0 7.0 0.00 0.00 0.00 52 1017.4
20260904163456 93 155 4.0 8.0 0.00 0.00 0.00 52 1017.6
20260904162956 93 145 3.0 7.0 0.00 0.00 0.00 51 1017.4
20260904162451 93 103 0.0 7.0 0.00 0.00 0.00 54 1017.7
20260904161946 93 84 4.0 7.0 0.00 0.00 0.00 51 1017.5
20260904161442 93 143 3.0 7.0 0.00 0.00 0.00 53 1017.7
20260904160937 93 112 4.0 8.0 0.00 0.00 0.00 52 1017.7
20260904160432 92 137 5.0 9.0 0.00 0.00 0.00 53 1017.7
20260904155927 92 126 1.0 5.0 0.00 0.00 0.00 55 1017.8
20260904155422 92 139 0.0 3.0 0.00 0.00 0.00 56 1017.8
20260904154920 92 318 2.0 6.0 0.00 0.00 0.00 56 1017.9
20260904154415 91 322 4.0 5.0 0.00 0.00 0.00 58 1017.7
20260904153910 91 141 3.0 5.0 0.00 0.00 0.00 57 1017.8
20260904153405 91 171 4.0 6.0 0.00 0.00 0.00 58 1017.9
20260904152901 91 124 2.0 7.0 0.00 0.00 0.00 58 1017.8
20260904152356 90 108 5.0 6.0 0.00 0.00 0.00 60 1017.6
20260904151855 90 132 4.0 7.0 0.00 0.00 0.00 59 1017.8
20260904151350 90 190 3.0 3.0 0.00 0.00 0.00 60 1017.7
20260904150846 89 186 3.0 4.0 0.00 0.00 0.00 60 1017.6
20260904150341 89 62 4.0 5.0 0.00 0.00 0.00 61 1017.4
20260904145838 89 122 0.0 5.0 0.00 0.00 0.00 62 1017.5
20260904145335 89 313 0.0 2.0 0.00 0.00 0.00 63 1017.4
20260904144830 88 181 2.0 4.0 0.00 0.00 0.00 63 1017.5
20260904144326 88 190 3.0 5.0 0.00 0.00 0.00 63 1017.6
20260904143821 87 126 4.0 7.0 0.00 0.00 0.00 66 1017.7
20260904143318 87 112 1.0 3.0 0.00 0.00 0.00 67 1017.5
20260904142814 86 137 0.0 4.0 0.00 0.00 0.00 67 1017.5
20260904142310 86 187 1.0 7.0 0.00 0.00 0.00 67 1017.6
20260904141804 86 173 1.0 6.0 0.00 0.00 0.00 67 1017.7
20260904141259 85 180 2.0 5.0 0.00 0.00 0.00 68 1017.6
20260904140755 85 120 3.0 3.0 0.00 0.00 0.00 69 1017.6
20260904140250 85 99 3.0 3.0 0.00 0.00 0.00 71 1017.6
20260904135749 84 82 2.0 2.0 0.00 0.00 0.00 72 1017.4
20260904135244 84 81 2.0 4.0 0.00 0.00 0.00 72 1017.5
20260904134741 84 150 2.0 4.0 0.00 0.00 0.00 73 1017.4
20260904134240 83 124 2.0 4.0 0.00 0.00 0.00 74 1017.4
20260904133735 83 50 0.0 2.0 0.00 0.00 0.00 74 1017.2
20260904133231 82 81 1.0 2.0 0.00 0.00 0.00 76 1017.5
20260904132730 82 182 2.0 4.0 0.00 0.00 0.00 76 1017.3
20260904132226 81 133 2.0 3.0 0.00 0.00 0.00 77 1017.3
20260904131725 81 114 3.0 4.0 0.00 0.00 0.00 79 1017.5
20260904131221 80 75 0.0 2.0 0.00 0.00 0.00 81 1017.5
20260904130715 80 246 0.0 1.0 0.00 0.00 0.00 81 1017.3
20260904130214 80 118 2.0 4.0 0.00 0.00 0.00 82 1017.3
20260904125710 80 15 0.0 2.0 0.00 0.00 0.00 82 1017.2
20260904125206 79 55 0.0 2.0 0.00 0.00 0.00 83 1017.1
20260904124701 79 125 3.0 3.0 0.00 0.00 0.00 85 1017.2
20260904124156 78 173 2.0 4.0 0.00 0.00 0.00 85 1017.1
20260904123656 77 125 2.0 3.0 0.00 0.00 0.00 87 1017.0
20260904123152 77 157 0.0 3.0 0.00 0.00 0.00 89 1017.1
20260904122646 76 165 0.0 2.0 0.00 0.00 0.00 90 1016.9
20260904122142 75 113 0.0 1.0 0.00 0.00 0.00 89 1016.9
20260904121637 75 343 0.0 0.0 0.00 0.00 0.00 89 1016.8
20260904121132 75 115 0.0 2.0 0.00 0.00 0.00 89 1017.0
20260904120628 75 146 1.0 2.0 0.00 0.00 0.00 89 1016.9
20260904120125 75 299 0.0 1.0 0.00 0.00 0.00 89 1016.7
20260904115625 75 7 0.0 2.0 0.00 0.00 0.00 89 1016.6
20260904115119 75 129 0.0 2.0 0.00 0.00 0.00 89 1016.8
20260904114614 75 230 0.0 1.0 0.00 0.00 0.00 89 1016.6
20260904114108 75 15 0.0 1.0 0.00 0.00 0.00 89 1016.4
20260904113603 75 34 0.0 2.0 0.00 0.00 0.00 89 1016.5
20260904113102 75 50 0.0 0.0 0.00 0.00 0.00 89 1016.5
20260904112557 75 154 0.0 0.0 0.00 0.00 0.00 89 1016.4
20260904112054 75 154 0.0 2.0 0.00 0.00 0.00 89 1016.2
20260904111549 75 32 0.0 1.0 0.00 0.00 0.00 89 1016.4
20260904111044 75 33 0.0 2.0 0.00 0.00 0.00 89 1016.4
20260904110538 74 8 0.0 1.0 0.00 0.00 0.00 89 1016.4
20260904110034 74 117 0.0 0.0 0.00 0.00 0.00 88 1016.2
20260904105527 74 109 0.0 2.0 0.00 0.00 0.00 88 1016.4
20260904105023 75 176 1.0 2.0 0.00 0.00 0.00 88 1016.3
20260904104519 75 129 0.0 0.0 0.00 0.00 0.00 87 1016.3
20260904104014 75 117 0.0 1.0 0.00 0.00 0.00 87 1016.1
20260904103510 75 50 0.0 0.0 0.00 0.00 0.00 87 1016.2
20260904103006 75 50 0.0 0.0 0.00 0.00 0.00 87 1016.1
20260904102501 75 6 0.0 0.0 0.00 0.00 0.00 87 1016.0
20260904101956 75 352 0.0 0.0 0.00 0.00 0.00 87 1016.2
20260904101453 76 351 0.0 2.0 0.00 0.00 0.00 87 1016.1
20260904100948 76 9 0.0 2.0 0.00 0.00 0.00 87 1016.0
20260904100444 76 5 0.0 1.0 0.00 0.00 0.00 87 1016.0
20260904095943 76 351 0.0 1.0 0.00 0.00 0.00 87 1016.2
20260904095439 76 333 0.0 2.0 0.00 0.00 0.00 87 1015.9
20260904094933 76 300 0.0 2.0 0.00 0.00 0.00 86 1016.0
20260904094428 76 297 0.0 1.0 0.00 0.00 0.00 86 1016.0
20260904093925 76 15 0.0 0.0 0.00 0.00 0.00 86 1015.9
20260904093420 76 50 0.0 1.0 0.00 0.00 0.00 86 1016.0
20260904092915 76 55 0.0 1.0 0.00 0.00 0.00 86 1015.9
20260904092412 76 117 0.0 1.0 0.00 0.00 0.00 86 1015.9
20260904091907 76 37 0.0 1.0 0.00 0.00 0.00 85 1015.8
20260904091403 76 104 0.0 2.0 0.00 0.00 0.00 85 1015.7
20260904090857 77 136 1.0 2.0 0.00 0.00 0.00 85 1015.6
20260904090353 77 326 0.0 0.0 0.00 0.00 0.00 85 1015.8
20260904085848 77 289 0.0 2.0 0.00 0.00 0.00 85 1015.9
20260904085344 77 279 0.0 2.0 0.00 0.00 0.00 85 1015.7
20260904084843 77 333 0.0 2.0 0.00 0.00 0.00 85 1015.8
20260904084340 77 301 0.0 2.0 0.00 0.00 0.00 85 1015.8
20260904083835 77 315 0.0 1.0 0.00 0.00 0.00 85 1015.6
20260904083332 77 358 1.0 2.0 0.00 0.00 0.00 85 1015.6
20260904082827 77 29 0.0 1.0 0.00 0.00 0.00 85 1015.7
20260904082321 77 75 0.0 1.0 0.00 0.00 0.00 85 1015.7
20260904081817 78 141 0.0 1.0 0.00 0.00 0.00 85 1015.8
20260904081312 78 38 0.0 2.0 0.00 0.00 0.00 85 1015.8
20260904080808 77 50 0.0 2.0 0.00 0.00 0.00 86 1016.0
20260904080304 77 147 0.0 2.0 0.00 0.00 0.00 86 1015.9
20260904075800 77 157 0.0 2.0 0.00 0.00 0.00 87 1015.9
20260904075254 77 166 0.0 2.0 0.00 0.00 0.00 88 1015.9
20260904074753 77 141 0.0 1.0 0.00 0.00 0.00 88 1015.8
20260904074249 76 141 0.0 2.0 0.00 0.00 0.00 88 1015.9
20260904073744 76 157 0.0 2.0 0.00 0.00 0.00 88 1015.8
20260904073239 76 129 0.0 0.0 0.00 0.00 0.00 88 1015.8
20260904072736 77 142 0.0 1.0 0.00 0.00 0.00 88 1015.9
20260904072229 77 129 0.0 1.0 0.00 0.00 0.00 88 1015.8
20260904071726 77 129 0.0 0.0 0.00 0.00 0.00 87 1015.7
20260904071225 77 129 0.0 0.0 0.00 0.00 0.00 87 1015.9
20260904070720 77 134 0.0 1.0 0.00 0.00 0.00 87 1015.8
20260904070219 77 304 0.0 1.0 0.00 0.00 0.00 87 1015.7
20260904065714 77 7 0.0 1.0 0.00 0.00 0.00 88 1015.9
20260904065211 77 124 0.0 0.0 0.00 0.00 0.00 87 1015.9
20260904064711 77 124 0.0 0.0 0.00 0.00 0.00 87 1015.9
20260904064206 77 124 0.0 0.0 0.00 0.00 0.00 87 1015.9
20260904063702 77 124 0.0 0.0 0.00 0.00 0.00 87 1015.9
20260904063157 77 138 0.0 1.0 0.00 0.00 0.00 87 1015.9
20260904062654 77 137 0.0 1.0 0.00 0.00 0.00 86 1016.0
20260904062149 77 129 0.0 0.0 0.00 0.00 0.00 86 1016.0
20260904061644 77 129 0.0 0.0 0.00 0.00 0.00 86 1016.0
20260904061141 78 129 0.0 0.0 0.00 0.00 0.00 86 1015.9
20260904060637 78 154 0.0 0.0 0.00 0.00 0.00 86 1015.8
20260904060132 78 154 0.0 1.0 0.00 0.00 0.00 86 1016.0
20260904055627 78 37 0.0 0.0 0.00 0.00 0.00 86 1016.2
20260904055122 78 37 0.0 0.0 0.00 0.00 0.00 86 1016.0
20260904054618 78 37 0.0 0.0 0.00 0.00 0.00 86 1016.0
20260904054114 78 62 0.0 0.0 0.00 0.00 0.00 85 1016.2
20260904053608 78 62 0.0 1.0 0.00 0.00 0.00 85 1016.2
20260904053103 78 351 0.0 1.0 0.00 0.00 0.00 85 1016.2
20260904052600 78 3 1.0 1.0 0.00 0.00 0.00 85 1016.3
20260904052055 78 13 0.0 1.0 0.00 0.00 0.00 85 1016.3
20260904051552 78 144 0.0 2.0 0.00 0.00 0.00 85 1016.0
20260904051051 78 139 0.0 1.0 0.00 0.00 0.00 84 1016.1
20260904050547 78 142 0.0 1.0 0.00 0.00 0.00 84 1016.1
20260904050043 78 121 1.0 2.0 0.00 0.00 0.00 84 1016.2
20260904045538 78 142 0.0 1.0 0.00 0.00 0.00 84 1016.2
20260904045032 78 142 0.0 1.0 0.00 0.00 0.00 84 1016.2
20260904044528 79 140 1.0 2.0 0.00 0.00 0.00 84 1016.1
20260904044024 79 37 0.0 0.0 0.00 0.00 0.00 84 1016.2
20260904043520 79 37 0.0 1.0 0.00 0.00 0.00 84 1016.2
20260904043016 79 19 1.0 2.0 0.00 0.00 0.00 84 1016.1
20260904042512 79 50 0.0 1.0 0.00 0.00 0.00 84 1016.3
20260904042007 78 129 0.0 0.0 0.00 0.00 0.00 84 1016.1
20260904041502 78 129 0.0 1.0 0.00 0.00 0.00 84 1016.0
20260904040959 79 129 0.0 1.0 0.00 0.00 0.00 83 1016.2
20260904040453 79 117 0.0 2.0 0.00 0.00 0.00 83 1016.2
20260904035949 79 117 0.0 1.0 0.00 0.00 0.00 83 1016.3
20260904035445 79 127 0.0 1.0 0.00 0.00 0.00 82 1016.1
20260904034944 80 150 0.0 1.0 0.00 0.00 0.00 82 1016.1
20260904034439 80 129 0.0 1.0 0.00 0.00 0.00 81 1016.2
20260904033935 80 129 0.0 0.0 0.00 0.00 0.00 81 1016.3
20260904033432 80 129 0.0 0.0 0.00 0.00 0.00 81 1016.5
20260904032927 80 129 0.0 0.0 0.00 0.00 0.00 80 1016.5
20260904032423 80 129 0.0 0.0 0.00 0.00 0.00 80 1016.5
20260904031922 80 154 0.0 0.0 0.00 0.00 0.00 80 1016.4
20260904031417 80 154 0.0 0.0 0.00 0.00 0.00 80 1016.4
20260904030913 80 154 0.0 0.0 0.00 0.00 0.00 80 1016.4
20260904030408 80 154 0.0 0.0 0.00 0.00 0.00 80 1016.5
20260904025903 80 154 0.0 0.0 0.00 0.00 0.00 79 1016.5
20260904025359 80 154 0.0 0.0 0.00 0.00 0.00 79 1016.3
20260904024859 81 154 0.0 0.0 0.00 0.00 0.00 79 1016.5
20260904024354 81 135 0.0 0.0 0.00 0.00 0.00 78 1016.6
20260904023850 81 135 0.0 0.0 0.00 0.00 0.00 78 1016.6
20260904023346 81 129 0.0 0.0 0.00 0.00 0.00 77 1016.6
20260904022845 81 104 0.0 1.0 0.00 0.00 0.00 77 1016.5
20260904022342 81 75 0.0 0.0 0.00 0.00 0.00 77 1016.4
20260904021838 81 75 0.0 0.0 0.00 0.00 0.00 77 1016.5
20260904021333 82 117 0.0 1.0 0.00 0.00 0.00 77 1016.2
20260904020828 82 154 0.0 1.0 0.00 0.00 0.00 77 1016.3
20260904020324 82 154 0.0 0.0 0.00 0.00 0.00 77 1016.2
20260904015822 82 154 0.0 0.0 0.00 0.00 0.00 77 1016.3
20260904015318 82 154 0.0 2.0 0.00 0.00 0.00 77 1016.3
20260904014816 82 132 1.0 2.0 0.00 0.00 0.00 77 1016.1
20260904014311 82 117 0.0 0.0 0.00 0.00 0.00 75 1016.2
20260904013807 82 117 0.0 0.0 0.00 0.00 0.00 75 1016.1
20260904013303 83 117 0.0 0.0 0.00 0.00 0.00 75 1016.1
20260904012759 83 142 0.0 2.0 0.00 0.00 0.00 75 1015.9
20260904012253 83 142 0.0 1.0 0.00 0.00 0.00 74 1015.9
20260904011752 84 164 0.0 0.0 0.00 0.00 0.00 73 1015.9
20260904011248 84 164 0.0 0.0 0.00 0.00 0.00 73 1015.8
20260904010748 84 164 0.0 0.0 0.00 0.00 0.00 72 1015.8
20260904010244 84 164 0.0 0.0 0.00 0.00 0.00 72 1015.6
20260904005739 84 164 0.0 1.0 0.00 0.00 0.00 72 1015.5
20260904005235 84 9 1.0 2.0 0.00 0.00 0.00 71 1015.4